Torna al catalogo

CZ-6A DEB

AttivoPO
NORAD 61299·DEBRIS·🇨🇳 China

Lanciato Aug 6, 2024 da Taiyuan Satellite Launch Center

Loading…

Prossimi Passaggi (prossime 24 ore)

TLE

AggiornatoSource: Space-Track

Epoca: Sep 14, 2026, 10:44 UTC

1 61299U 24140TL  26257.44767541  .00001536  00000-0  60076-3 0  9995
2 61299  88.9839 262.4683 0022287 249.4987 110.3816 14.28974951106567

Traccia CZ-6A DEB in tempo reale con AllMySat

Download on the App Store